This is the latest recevied weather packets stored in our database for station/object F5ZQC-13. If no packets are shown the sender has not sent any weather packets the latest 1 day(s).
| Time | Temp. | Humidity | Pressure | Rain* | Wind** | Luminosity | Snow |
|---|---|---|---|---|---|---|---|
| 1777997026 | 13.33° C | 55% | 1010.3 hPa | 8.89 mm | 1.79 m/s, 303° | - | - |
| 1777996903 | 13.33° C | 54% | 1010.1 hPa | 8.89 mm | 2.24 m/s, 225° | - | - |
| 1777996539 | 13.33° C | 54% | 1010.3 hPa | 8.89 mm | 2.24 m/s, 303° | - | - |
| 1777996169 | 13.33° C | 53% | 1010.3 hPa | 8.89 mm | 1.34 m/s, 315° | - | - |
| 1777995925 | 13.33° C | 53% | 1010.3 hPa | 8.89 mm | 1.34 m/s, 337° | - | - |
| 1777995680 | 13.33° C | 54% | 1010.3 hPa | 8.89 mm | 2.24 m/s, 292° | - | - |
| 1777995557 | 13.33° C | 53% | 1009.9 hPa | 8.89 mm | 0.89 m/s, 337° | - | - |
| 1777995313 | 13.33° C | 52% | 1010.2 hPa | 8.89 mm | 1.34 m/s, 292° | - | - |
| 1777994580 | 13.89° C | 50% | 1010.3 hPa | 8.64 mm | 2.68 m/s, 315° | - | - |
| 1777994335 | 13.89° C | 49% | 1010.3 hPa | 8.64 mm | 3.58 m/s, 315° | - | - |
| 1777994214 | 13.89° C | 48% | 1010.2 hPa | 8.64 mm | 1.79 m/s, 337° | - | - |
| 1777993969 | 14.44° C | 48% | 1010.1 hPa | 8.64 mm | 3.13 m/s, 315° | - | - |
| 1777993846 | 14.44° C | 47% | 1010.1 hPa | 8.38 mm | 1.34 m/s, 292° | - | - |
| 1777993601 | 14.44° C | 47% | 1010.1 hPa | 8.38 mm | 0.89 m/s, 292° | - | - |
| 1777993357 | 15° C | 45% | 1010 hPa | 8.38 mm | 3.13 m/s, 292° | - | - |
| 1777993142 | 15.56° C | 44% | 1010.1 hPa | 7.87 mm | 5.81 m/s, 315° | - | - |
| 1777993020 | 15.56° C | 43% | 1010 hPa | 7.87 mm | 3.58 m/s, 315° | - | - |
| 1777992836 | 16.11° C | 43% | 1010 hPa | 7.62 mm | 2.24 m/s, 270° | - | - |
| 1777992734 | 16.11° C | 43% | 1010 hPa | 7.37 mm | 6.26 m/s, 292° | - | - |
| 1777992631 | 16.67° C | 42% | 1010 hPa | 7.11 mm | 0.89 m/s, 337° | - | - |
| 1777992276 | 17.22° C | 42% | 1009.9 hPa | 6.6 mm | 7.15 m/s, 270° | - | - |
| 1777992028 | 17.78° C | 42% | 1009.9 hPa | 5.84 mm | 3.58 m/s, 270° | - | - |
| 1777991905 | 17.78° C | 40% | 1009.9 hPa | 5.08 mm | 1.34 m/s, 337° | - | - |
| 1777991771 | 18.33° C | 41% | 1009.7 hPa | 4.32 mm | 8.94 m/s, 337° | - | - |
| 1777991708 | 18.33° C | 41% | 1010 hPa | 4.06 mm | 2.24 m/s, 270° | - | - |
* Rain since midnight (hover to see other rain measurements)
** Current wind speed in m/s (hover to see current wind gust speed)